Simultaneous Nadir Overpasses (SNOs) Predictions

Prediction of SNOs between LANDSAT-8 and NOAA-19 Satellite Orbit:

Table of predicted SNOs for the next 14.0 days since TLE Epoch: 1/22/2016
Index Date (LANDSAT-8) Time (LANDSAT-8) Lat,Lon (LANDSAT-8) SZA (LANDSAT-8 ) Date (NOAA-19) Time (NOAA-19) Lat,Lon (NOAA-19) SZA (NOAA-19 ) Distance(km) Time Diff (sec)
1 01/23/2016 05:49:15 -74.15, -83.87 86.38 01/23/2016 05:48:07 -74.16, -83.90 86.36 1.63 68
2 01/23/2016 06:38:42 74.07, 83.59 93.54 01/23/2016 06:39:06 74.08, 83.58 93.55 0.60 24
3 01/25/2016 11:22:58 74.14, 12.66 93.08 01/25/2016 11:22:17 74.14, 12.66 93.09 0.81 41
4 01/25/2016 12:12:27 -74.06,-179.86 87.00 01/25/2016 12:13:16 -74.05,-179.85 87.02 1.61 49
5 01/27/2016 16:56:43 -74.12, 109.20 87.50 01/27/2016 16:56:27 -74.15, 109.15 87.47 3.07 16
6 01/27/2016 17:46:12 73.94, -83.59 92.31 01/27/2016 17:47:24 73.91, -83.00 92.29 18.32 72
7 01/29/2016 21:40:54 -74.43, 38.85 87.77 01/29/2016 21:39:43 -74.49, 37.49 87.71 40.91 71
8 01/29/2016 22:30:25 74.14,-154.19 91.93 01/29/2016 22:30:38 74.13,-154.31 91.93 3.62 13
9 02/01/2016 03:14:41 74.18, 134.83 91.37 02/01/2016 03:13:48 74.16, 134.87 91.35 2.47 53
10 02/01/2016 04:04:10 -74.12, -57.68 88.71 02/01/2016 04:04:46 -74.10, -57.72 88.72 2.29 36
11 02/03/2016 08:48:26 -74.15,-128.67 89.30 02/03/2016 08:47:56 -74.16,-128.62 89.29 1.59 30




NCC Satellite Simultaneous Nadir Overpasses (SNOs) Prediction Service
